Location: Kumla
(59.1265°N, 15.1401°E)
Time: 07:49:21
(UTC+01:00)

Vanguard 1 Rocket - Pass Details

Date: 10 December 2023
Orbit: 653 x 4219 km, 34.3° (Epoch: 04 March)

Event Time Altitude Azimuth Distance (km) Brightness Sun altitude
Rises 04:36:15 0° 231° (SW) 8,398 - -29.1°
Exits shadow 04:41:44 - 224° (SW) 7,469 11.6 -28.4°
Reaches altitude 10° 04:43:47 10° 221° (SW) 7,117 11.5 -28.2°
Maximum altitude 05:00:08 27° 176° (S) 4,697 11.0 -26.1°
Drops below altitude 10° 05:11:14 10° 126° (SE) 4,772 11.8 -24.7°
Sets 05:14:58 0° 114° (ESE) 5,305 12.5 -24.2°
